Location: Goettingen
(51.5300°N, 9.9433°E)
Time: 22:07:55
(UTC+02:00)

ISS - Pass Details

Date: 26 July 2021
Orbit: 419 x 421 km, 51.6° (Epoch: 28 July)

Event Time Altitude Azimuth Distance (km) Brightness Sun altitude
Rises 22:18:44 0° 283° (WNW) 2,373 1.1 -8.2°
Reaches altitude 10° 22:20:51 10° 279° (W) 1,507 -0.1 -8.4°
Maximum altitude 22:24:10 58° 200° (SSW) 494 -3.6 -8.8°
Enters shadow 22:27:10 12° 121° (ESE) 1,371 -1.8 -9.1°
